This is the latest recevied weather packets stored in our database for station/object KO4LCK. If no packets are shown the sender has not sent any weather packets the latest 1 day(s).
| Time | Temp. | Humidity | Pressure | Rain* | Wind** | Luminosity | Snow |
|---|---|---|---|---|---|---|---|
| 1778002110 | 26.11° C | 35% | 1015.8 hPa | 0 mm | 0.89 m/s, 225° | 697 W/m² | - |
| 1778001808 | 26.11° C | 37% | 1015.6 hPa | 0 mm | 2.68 m/s, 207° | 879 W/m² | - |
| 1778001502 | 26.67° C | 39% | 1015.8 hPa | 0 mm | 2.68 m/s, 182° | 882 W/m² | - |
| 1778001199 | 26.11° C | 44% | 1015.8 hPa | 0 mm | 0.45 m/s, 207° | 831 W/m² | - |
| 1778000895 | 26.11° C | 39% | 1015.7 hPa | 0 mm | 0.45 m/s, 267° | 713 W/m² | - |
| 1778000592 | 26.11° C | 40% | 1016 hPa | 0 mm | 1.34 m/s, 286° | 872 W/m² | - |
| 1778000288 | 25.56° C | 37% | 1016 hPa | 0 mm | 1.79 m/s, 115° | 790 W/m² | - |
| 1777999984 | 26.11° C | 38% | 1015.9 hPa | 0 mm | 1.79 m/s, 187° | 723 W/m² | - |
| 1777999679 | 25.56° C | 39% | 1015.8 hPa | 0 mm | 2.24 m/s, 158° | 779 W/m² | - |
| 1777999377 | 25.56° C | 40% | 1016 hPa | 0 mm | 3.13 m/s, 159° | 805 W/m² | - |
| 1777999075 | 25.56° C | 38% | 1016 hPa | 0 mm | 1.34 m/s, 283° | 821 W/m² | - |
| 1777998773 | 25.56° C | 40% | 1016.3 hPa | 0 mm | 1.34 m/s, 193° | 813 W/m² | - |
| 1777998470 | 26.11° C | 39% | 1016 hPa | 0 mm | 1.79 m/s, 118° | 814 W/m² | - |
| 1777998167 | 26.11° C | 41% | 1015.9 hPa | 0 mm | 0.45 m/s, 120° | 800 W/m² | - |
| 1777997864 | 25° C | 44% | 1016.1 hPa | 0 mm | 0.45 m/s, 299° | 781 W/m² | - |
| 1777997562 | 25° C | 46% | 1016 hPa | 0 mm | 0.89 m/s, 230° | 802 W/m² | - |
| 1777997259 | 25° C | 44% | 1015.8 hPa | 0 mm | 1.79 m/s, 210° | 766 W/m² | - |
| 1777996957 | 25° C | 45% | 1015.8 hPa | 0 mm | 1.79 m/s, 218° | 755 W/m² | - |
| 1777996653 | 25° C | 49% | 1015.6 hPa | 0 mm | 0.45 m/s, 255° | 738 W/m² | - |
| 1777996349 | 24.44° C | 47% | 1015.9 hPa | 0 mm | 0.45 m/s, 194° | 723 W/m² | - |
| 1777996045 | 23.89° C | 47% | 1016.1 hPa | 0 mm | 0.89 m/s, 214° | 716 W/m² | - |
| 1777995742 | 23.89° C | 47% | 1016 hPa | 0 mm | 0.45 m/s, 127° | 708 W/m² | - |
| 1777995438 | 24.44° C | 48% | 1016.5 hPa | 0 mm | 0.45 m/s, 277° | 699 W/m² | - |
| 1777995136 | 24.44° C | 47% | 1016.3 hPa | 0 mm | 0.45 m/s, 160° | 691 W/m² | - |
| 1777994833 | 23.89° C | 51% | 1016.6 hPa | 0 mm | 0 m/s | 677 W/m² | - |
* Rain latest hour (hover to see other rain measurements)
** Current wind speed in m/s (hover to see current wind gust speed)